Regional Weather Roundup
Issued by NWS Wakefield, VA

Home | Current Version | Previous Version | Text Only | Print | Product List | Glossary Off
Versions: 1 2 3 4 5 6 7 8 9 10 11 12 13 14 15 16 17 18 19 20 21 22 23 24 25 26 27 28 29 30 31 32 33 34 35 36 37 38 39 40 41 42 43 44 45 46 47 48 49 50

902
ASUS41 KAKQ 240415
RWRAKQ

REGIONAL WEATHER ROUNDUP
NATIONAL WEATHER SERVICE WAKEFIELD VA
1200 AM EDT SUN JUL 24 2016

Note: "fair" indicates few or no clouds below 12,000 feet with no
significant weather and/or obstructions to visibility. * = Denotes
station may not report precipitation (e.g., rain,snow,etc.),
thunder or fog.

VAZ042-051-052>054-056-240500-
NORTHERN VIRGINIA

CITY           SKY/WX    TMP DP  RH WIND       PRES   REMARKS
WASH NATIONAL  MOCLDY    86  75  69 SE3       29.92S HX  95
DULLES         FAIR      77  73  87 CALM      29.94R
FORT BELVOIR   FAIR      78  74  88 CALM      29.93R
QUANTICO       FAIR      84  75  74 CALM      29.93S
FREDERICKSBRG* FAIR      80  72  75 CALM      29.93F
STAFFORD*      FAIR      81  71  71 NW3       29.98S
WARRENTON      FAIR      77  71  80 CALM      29.95R
CULPEPER*      FAIR      77  73  87 CALM      29.96R
MANASSAS*      FAIR      75  73  94 S3        29.94R
LEESBURG*      FAIR      81  73  78 CALM      29.95S
WINCHESTER     FAIR      79  70  73 CALM      29.98R
FRONT ROYAL*   FAIR      79  72  78 CALM      29.97R
LURAY*         FAIR      73  73 100 CALM      30.00R
$$

VAZ048-049-060>072-079>083-240500-
CENTRAL AND SOUTH CENTRAL VIRGINIA

CITY           SKY/WX    TMP DP  RH WIND       PRES   REMARKS
RICHMOND       MOCLDY    83  75  77 SW10      29.94S
CHESTERFIELD*  FAIR      81  64  57 SW5       29.97S
PETERSBURG*    FAIR     N/A N/A N/A CALM      29.97S
HANOVER        FAIR      84  72  67 SW5       29.96R
TAPPAHANNOCK*  FAIR      82  77  85 CALM      29.94S
QUINTON*       FAIR      82  78  89 CALM      29.94R
CHARLOTTSVILLE FAIR      81  72  74 S3        29.97R
GORDONSVILLE*  FAIR      77  75  93 CALM      29.96R
ORANGE*          N/A     79  77  94 CALM      29.98R
LOUISA*        FAIR      81  79  94 N3        29.96R
BUMPASS*       FAIR      77  76  96 CALM      29.96R
FARMVILLE*     FAIR      76  76  98 CALM      29.96S
CREWE*         FAIR      76  76 100 CALM      29.97S
FORT PICKETT*  FAIR      77  76  98 SW5       29.98S
CHASE CITY*    FAIR      77  75  94 CALM      29.99S
CLARKSVILLE*   FAIR      77  77 100 CALM      29.99R
SOUTH HILL*    FAIR      77  75  93 CALM      30.04S
LAWRENCEVILLE* FAIR      78  76  95 CALM      29.98R
EMPORIA*       FAIR      75  73  94 CALM      29.98S
$$

VAZ088>098-240500-
SOUTHEAST VIRGINIA

CITY           SKY/WX    TMP DP  RH WIND       PRES   REMARKS
NORFOLK        FAIR      85  75  72 SW10      29.95S
VIRGINIA BEACH FAIR      88  75  65 SW9       29.95S HX  97
NORFOLK NAVAL  FAIR      85  75  72 SW8       29.97R
WEST POINT*    FAIR      83  75  79 CALM      29.95S
SALUDA*        FAIR      82  78  86 SW5       29.94R
NEWPORT NEWS   FAIR      84  76  76 SW9       29.95S
LANGLEY AFB    FAIR      86  76  72 SE8       29.95R HX  95
FORT EUSTIS    FAIR      84  77  81 SW5       29.93S
WILLIAMSBURG*  FAIR      86  77  74 CALM      29.96R HX  97
HR EXEC AP*    FAIR      81  75  83 SW8       29.98S
FRANKLIN*      FAIR      80  76  86 S6        29.97R
US460-WAKEFLD  FAIR      81  75  82 SW5       29.96S
$$

VAZ020-022-025-037-045-240500-
WEST CENTRAL AND SOUTHWEST VIRGINIA

CITY           SKY/WX    TMP DP  RH WIND       PRES   REMARKS
STAUNTON*      FAIR      74  71  88 CALM      30.04S
WAYNESBORO*    CLOUDY    81  69  67 CALM      30.04R
HOT SPRINGS VA NOT AVBL
LYNCHBURG      FAIR      76  72  87 SW3       30.02R
DANVILLE       FAIR      78  74  87 SW3       30.00R
SOUTH BOSTON*  FAIR      76  75  96 CALM      29.99R
MARTINSVILLE   FAIR      72  70  94 CALM      30.05R
ROANOKE        FAIR      79  70  74 CALM      30.05R
BLACKSBURG     FAIR      73  69  90 CALM      30.13S
DUBLIN*        FAIR      75  69  82 CALM      30.11S
MARION*        FAIR      71  68  92 CALM      30.16R FOG
HILLSVILLE*    FAIR      75  67  77 CALM      30.14R
RICHLANDS*     FAIR      73  71  95 CALM      30.14R
WISE*          FAIR      72  61  68 CALM      30.15F
ABINGDON*      FAIR      76  70  82 CALM      30.11S
$$

MDZ021>025-VAZ099-100-240500-
SOUTHERN MARYLAND AND THE DELMARVA PENINSULA

CITY           SKY/WX    TMP DP  RH WIND       PRES   REMARKS
PATUXENT RIVER CLEAR     85  74  69 SW9       29.92R
BAY BRIDGE APT CLOUDY    79  73  83 CALM      29.91R
LEONARDTOWN    CLEAR     82  73  74 SW3       29.94S
DOVER          CLEAR     78  78 100 S6        29.89S
GEORGETOWN     PTCLDY    80  75  84 SW3       29.92R
EASTON         CLOUDY    78  78 100 CALM      29.95S
CAMBRIDGE      PTCLDY    79  75  89 CALM      29.92R
SALISBURY      CLEAR     81  78  91 SW3       29.92R
OCEAN CITY     PTCLDY    83  76  79 SW6       29.92R
WALLOPS ISLAND FAIR      83  76  79 SW8       29.93S
ACCOMACK*      FAIR      82  75  78 CALM      29.94S
$$

NCZ012>017-030>032-240500-
NORTH CENTRAL AND EASTERN NORTH CAROLINA

CITY           SKY/WX    TMP DP  RH WIND       PRES   REMARKS
ROANOKE RAPIDS FAIR      77  75  94 S3        29.98R
RALEIGH        PTCLDY    80  72  76 SW8       29.99S
ELIZABETH CITY CLEAR     82  74  76 SW13      29.97F
AHOSKIE*       CLEAR     78  75  91 S3        29.98S
EDENTON*       CLEAR     82  73  74 SW5       29.99F
CURRITUCK*     CLEAR     82  76  80 S6        29.98S
KILL DEVIL HLS CLEAR     82  74  78 SW5       29.98S
MANTEO           N/A     81  77  89 SW13      30.00S
CAPE HATTERAS  CLEAR     82  75  79 SW8       30.01S
TARBORO*       FAIR      81  76  84 S3        29.99S
GOLDSBORO      CLEAR     78  77  96 S5        29.98S
WASHINGTON     CLEAR     78  73  85 SW5       30.00R
GREENVILLE     CLEAR     81  75  83 SW5       30.01S
NEW BERN       CLEAR     78  74  87 SW5       30.02R
WILMINGTON     CLEAR     77  75  93 S3        30.01R
$$

VAZ048-240500-
ELSEWHERE

CITY           SKY/WX    TMP DP  RH WIND       PRES   REMARKS
HARRISBURG PA  PTCLDY    78  73  84 CALM      29.94R
BALTIMORE      PTCLDY    74  72  93 W5        29.92R
ANNAPOLIS      PTCLDY    79  76  90 CALM      29.90F
ANDREWS AFB    FAIR      79  74  83 S5        29.92S
PHILADELPHIA   PTCLDY    79  71  76 SW8       29.92R
GREENSBORO     CLEAR     80  70  71 W3        30.01R
ROCKY MOUNT    CLEAR     79  74  84 S5        29.98F
$$

VAZ100-240500-
MARINE

STATION/POSITION TIME  TEMP    WIND        PRES    WAVE   SWELL
                       AIR SEA DIR/SP/G            HT/PER HT/PER
                 (UTC) (F)     (DEG/KT/KT) (MB)    (FT/S) (FT/S)
BRANDYWINE LGT   0300   79                   N/A
CAPE MAY NJ      0300   78 75                N/A
LEWES DE         0300   80 76                N/A
OCEAN-CITY-INLET 0300   72 69                N/A
WACHAPREAGUE VA  0300   85 86                N/A
THOMAS POINT MD  0400   83 82  250/  5/  6 1014.2R
GOOSES REEF MD   0300   85 85   70/  4/  4 1014.0R   1
COVE POINT MD    0300   87                   N/A
SOLOMONS ISLAND  0300   86 84                N/A
BISHOPS HEAD MD  0300   87                   N/A
PINEY POINT MD   0300          240/  6/  7   N/A
POTOMAC MD       0300   86 85  220/  8/  8 1012.2R   0
CAMBRIDGE MD     0300   85 86                N/A
LEWISETTA VA     0300   86 87                N/A
RAPPAHANNOCK LGT 0300          210/ 12/ 13   N/A
STINGRAY PT      0300   87 85  160/  8/ 10 1014.0R   0
YORK RVR RNG VA  0300   87                   N/A
YORKTOWN VA      0300   85 84                N/A
JAMESTOWN VA     0300   86 87  200/  8/ 10   N/A     0
DOMINION TERM VA 0300   86                   N/A
KIPTOPEKE VA     0300      84                N/A
CHES BAY BRIDGE  0300   87 78                N/A
CAPE HENRY VA    0300   85                   N/A
WILLOUBY STN VA  0300   86                   N/A
CAPE HENRY BUOY  0312      81                N/A     2/ 9
1ST LANDING BUOY 0300   84 82  180/  4/  4 1013.9R
CAPE CHARLES BUO 0326      72                N/A     2/ 8
OFFSHORE WE BUOY 0321      81                N/A     3/ 8
64NM E OF VA BCH 0350   82 80  220/ 16/ 19 1014.3F   3/ 5   2/ 9
DUCK PIER NC     0300   84 65                N/A
44100 DUCK FRF   0305      81                N/A     2/ 8
44056 DUCK FRF   0311      74                N/A     2/ 8
OREGON INLET NC  0300   85 85                N/A
HATTERAS NC      0300   82 83                N/A
DIAMOND SHLS NC  0350   84 86  210/ 14/ 16 1016.2S   3/ 8   2/ 8
CAPE LOOKOUT NC  0400   83     210/  9/ 12 1016.1F
$$




USA.gov is the U.S. government's official web portal to all federal, state and local government web resources and services.